Miscellaneous Local Product
Issued by NWS Hastings, NE

Home | Current Version | Previous Version | Text Only | Print | Product List | Glossary Off
Versions: 1 2 3 4 5 6 7 8 9 10 11 12 13 14 15 16 17 18 19 20 21 22 23 24 25 26 27 28 29 30 31 32 33 34 35 36 37 38 39 40 41 42 43 44 45 46 47 48 49 50

000
AXUS43 KGID 241002
MISGRI

GID CWA HOURLY WEATHER ROUNDUP
NATIONAL WEATHER SERVICE HASTINGS NE
500 AM CDT THU JUL 24 2014

NOTE: "FAIR" INDICATES FEW OR NO CLOUDS BELOW 12,000 FEET WITH NO
SIGNIFICANT WEATHER AND/OR OBSTRUCTIONS TO VISIBILITY.

...SOUTH CENTRAL NEBRASKA...

CITY           SKY/WX    TMP DP  RH WIND       PRES   REMARKS
GRAND ISLAND   CLEAR     64  60  87 S6        30.11F
HASTINGS       CLEAR     67  59  75 MISG      30.11F
KEARNEY        CLEAR     63  59  88 S7        30.11F
ORD            MOCLDY    63  59  87 SE3       30.09F
YORK           CLEAR     64  63  94 SE7       30.12S
AURORA         CLEAR     62  61  96 SE5       30.11F
LEXINGTON      CLEAR     64  60  87 SE6       30.10F
HOLDREGE       CLEAR     64  60  88 SE9       30.10F
HEBRON         CLEAR     60  56  88 CALM      30.12R

...NEBRASKA PANHANDLE...

CITY           SKY/WX    TMP DP  RH WIND       PRES   REMARKS
CHADRON        MOCLDY    72  65  78 S13G28    29.97F
ALLIANCE       PTCLDY    65  63  93 SE13      30.04F
SCOTTSBLUFF    PTCLDY    67  64  90 E12       30.02F
SIDNEY         PTCLDY    70  64  81 S15       30.09F

...WESTERN AND NORTH CENTRAL NEBRASKA...

CITY           SKY/WX    TMP DP  RH WIND       PRES   REMARKS
VALENTINE      CLEAR     65  60  84 SE7       30.04F
AINSWORTH      CLEAR     65  58  79 SE14      30.07F
ONEILL         PTCLDY    65  58  78 SE10      30.09F
BROKEN BOW     CLEAR     65  60  84 S9        30.09F
IMPERIAL       CLEAR     68  63  84 S13       30.07F
NORTH PLATTE   CLEAR     67  60  78 SE8       30.08F
MCCOOK         CLEAR     66  62  87 E7        30.10F

...EASTERN NEBRASKA...

CITY           SKY/WX    TMP DP  RH WIND       PRES   REMARKS
NORFOLK        CLEAR     64  59  83 SE8       30.11F
SO SIOUX CITY  CLEAR     63  60  90 SE7       30.12F
TEKAMAH        CLEAR     62  59  90 CALM      30.13S
COLUMBUS       CLEAR     61  55  82 E6        30.12F
ALBION         PTCLDY    60  58  91 CALM      30.11S
OMAHA EPPLEY   PTCLDY    68  59  73 SE7       30.13F
OFFUTT AFB     CLEAR     62  62  98 CALM      30.13S
MILLARD        CLEAR     67  60  79 SE3       30.12F
LINCOLN        PTCLDY    71  59  65 SE9       30.13S
NEBRASKA CITY  CLEAR     64  60  87 SE6       30.13F
BEATRICE       CLEAR     65  62  88 SE6       30.12S
FALLS CITY     CLEAR     63  60  90 SE5       30.12S

...NORTHERN KANSAS...

CITY           SKY/WX    TMP DP  RH WIND       PRES   REMARKS
GOODLAND       CLEAR     68  66  93 S14       30.12F
HILL CITY      CLEAR     66  62  87 E5        30.10F
HAYS           CLEAR     66  57  72 E3        30.10F
RUSSELL        CLEAR     66  61  84 SE8       30.09F
CONCORDIA      CLEAR     65  64  97 SE7       30.10S
SALINA         CLEAR     69  62  78 SE3       30.10S
TOPEKA         CLEAR     68  63  84 E5        30.12R



USA.gov is the U.S. government's official web portal to all federal, state and local government web resources and services.